Location: Cheyres
(46.8153°N, 6.7877°E)
Time: 04:30:59
(UTC+00:00)

Cosmos 1536 - Pass Details

Date: 11 May 2021
Orbit: 539 x 558 km, 82.5° (Epoch: 18 June)

Event Time Altitude Azimuth Distance (km) Brightness Sun altitude
Rises 21:03:45 0° 356° (N) 2,747 7.4 -17.3°
Reaches altitude 10° 21:06:02 10° 4° (N) 1,844 6.2 -17.5°
Maximum altitude 21:09:55 42° 76° (ENE) 794 3.4 -17.9°
Enters shadow 21:10:48 36° 111° (ESE) 880 3.4 -18.0°
